[[{"header":{"parameterUnit":"m.s-1","parameterCategory":1,"la1":30.2991,"la2":30.254,"lo1":-89.0895,"lo2":-89.0444,"dy":0.0017,"dx":0.0017,"nx":28,"ny":28,"refTime":"2023-08-19T03:00:00:Z","depth":0,"parameterNumber":2,"parameterNumberName":"U-component_of_WINDS"},"data":[0,0,0,0,0,0,0,0,0,0,0,0,0,0,0,0,0,0,0,0,0,0,0,0,0,0,0,0,0,0,0,0,0,0,0,0,0,0,0,0,0,0,0,0,0,0,0,0,0,0,0,0,0,0,0,0,0,0,-3.0859,-3.0859,0,-3.0827,-3.0826,-3.0826,-3.0733,-3.0731,-3.0729,-3.0727,-3.0696,-3.0698,-3.0699,0,0,0,0,0,0,0,0,0,0,0,0,0,-3.0847,-3.0847,-3.0859,-3.0859,-3.0858,-3.0827,-3.0826,-3.0826,-3.0733,-3.0731,-3.0729,-3.0726,-3.0696,-3.0697,-3.0699,0,0,0,0,0,0,0,0,0,0,0,0,0,-3.0837,-3.0847,-3.0859,-3.0808,-3.0804,-3.0827,-3.0826,-3.0826,-3.0734,-3.0731,-3.0728,-3.0725,-3.0696,-3.0697,-3.0699,-3.0769,0,0,-3.0704,-3.0704,0,0,0,0,0,0,0,0,-3.0838,-3.0838,-3.0816,-3.0812,-3.0807,-3.0781,-3.081,-3.0807,-3.0735,-3.076,-3.0727,-3.0724,-3.0727,-3.0726,-3.0727,-3.0768,-3.0767,-3.0704,-3.0705,-3.0706,-3.0706,0,0,0,0,0,0,0,-3.0838,-3.0838,-3.0846,-3.0816,-3.081,-3.0789,-3.0784,-3.0809,-3.0761,-3.0758,-3.0751,-3.0748,-3.0724,-3.0725,-3.0725,-3.0766,-3.0704,-3.0705,-3.0706,-3.0707,-3.0868,-3.0871,0,0,0,0,0,0,-3.0846,-3.084,-3.0847,-3.0845,-3.0815,-3.0792,-3.0786,-3.0792,-3.0761,-3.0753,-3.0751,-3.0744,-3.0724,-3.0723,-3.0724,-3.0806,-3.0706,-3.0707,-3.0708,-3.0865,-3.0869,-3.0872,0,0,0,0,0,0,-3.0846,-3.0847,-3.0849,-3.0841,-3.0839,-3.0795,-3.0802,-3.0793,-3.0794,-3.0755,-3.0747,-3.0761,-3.0722,-3.0722,-3.0759,-3.0804,-3.0708,-3.0709,-3.0861,-3.0866,-3.0871,-3.0971,0,0,0,0,0,0,-3.0846,-3.0848,-3.0873,-3.0842,-3.084,-3.0884,-3.0805,-3.0795,-3.0797,-3.0788,-3.0762,-3.0755,-3.0719,-3.0758,-3.0761,-3.0804,-3.071,-3.0857,-3.0863,-3.0869,-3.0964,-3.0979,-3.0992,0,0,0,0,0,-3.0846,-3.0902,-3.0874,-3.0876,-3.087,-3.0886,-3.0885,-3.0842,-3.0801,-3.0827,-3.0802,-3.0756,-3.0799,-3.0762,-3.0765,-3.081,-3.0854,-3.0861,-3.0869,-3.0957,-3.0976,-3.0992,0,0,0,0,0,0,-3.0939,-3.0897,-3.0866,-3.0913,-3.0904,-3.087,-3.0901,-3.0862,-3.0865,-3.0856,-3.0803,-3.0798,-3.0844,-3.0831,-3.0791,-3.0879,-3.0819,-3.0827,-3.0885,-3.0903,-3.0917,-3.0919,-3.0712,0,0,0,0,0,-3.0966,-3.0981,-3.0944,-3.099,-3.0987,-3.0945,-3.0951,-3.0918,-3.0907,-3.0902,-3.0881,-3.0872,-3.0884,-3.0893,-3.0901,-3.0962,-3.0957,-3.0995,-3.1009,-3.1021,-3.1029,-3.1063,-3.108,-3.0897,-3.0897,-3.0897,0,0,-3.102,-3.0999,-3.1011,-3.1008,-3.0997,-3.1016,-3.0942,-3.0965,-3.0979,-3.0906,-3.094,-3.0925,-3.0913,-3.0963,-3.0984,-3.0953,-3.1078,-3.103,-3.104,-3.1041,-3.1072,-3.109,-3.1105,-3.0902,-3.0901,-3.09,0,0,-3.1128,-3.1113,-3.1151,-3.1142,-3.1126,-3.1099,-3.1109,-3.1082,-3.1068,-3.1102,-3.1049,-3.1066,-3.1087,-3.1081,-3.1081,-3.1192,-3.1151,-3.1197,-3.1271,-3.1305,-3.1319,-3.1332,-3.1373,-3.1389,-3.1205,-3.1205,-3.1205,0,-3.1197,-3.1222,-3.1175,-3.1202,-3.1204,-3.1139,-3.1178,-3.1172,-3.1161,-3.1164,-3.113,-3.1157,-3.1143,-3.1193,-3.1221,-3.1222,-3.1233,-3.1199,-3.1321,-3.1333,-3.1344,-3.1383,-3.1399,-3.1211,-3.121,-3.1209,-3.1209,0,-3.131,-3.1329,-3.1362,-3.1352,-3.1358,-3.1391,-3.1351,-3.1362,-3.1331,-3.1308,-3.1346,-3.1328,-3.1333,-3.1343,-3.1312,-3.139,-3.1371,-3.133,-3.1269,-3.1368,-3.1404,-3.1418,-3.1219,-3.1217,-3.1215,-3.1214,0,0,-3.1473,-3.144,-3.1453,-3.145,-3.143,-3.1444,-3.1477,-3.1481,-3.1493,-3.1489,-3.1516,-3.1537,-3.1499,-3.1499,-3.1468,-3.1498,-3.159,-3.1453,-3.1452,-3.148,-3.1677,-3.1709,-3.1727,-3.1563,-3.1566,-3.1568,-3.1679,0,-3.1577,-3.1628,-3.1588,-3.1647,-3.1666,-3.1607,-3.1635,-3.1628,-3.1609,-3.1623,-3.1602,-3.1618,-3.1567,-3.1567,-3.1594,-3.1573,-3.1629,-3.1564,-3.1589,-3.1591,-3.1594,-3.1745,-3.1778,-3.1883,-3.1692,-3.1695,-3.1696,0,-3.1703,-3.1705,-3.1767,-3.1746,-3.1752,-3.1778,-3.1781,-3.1795,-3.1787,-3.1771,-3.1773,-3.1735,-3.1768,-3.1709,-3.1754,-3.1711,-3.172,-3.1712,-3.1715,-3.1715,-3.1649,-3.1751,-3.1916,-3.1932,-3.1718,-3.1716,-3.1715,0,-3.1819,-3.1837,-3.1876,-3.1875,-3.1851,-3.1872,-3.1863,-3.1851,-3.1858,-3.1862,-3.1866,-3.1874,-3.1879,-3.1887,-3.1853,-3.1813,-3.1904,-3.1841,-3.1893,-3.1895,-3.1914,-3.1914,-3.2084,-3.192,-3.192,-3.1919,-3.1919,0,-3.1938,-3.1978,-3.1928,-3.1952,-3.1997,-3.1952,-3.1998,-3.1983,-3.1975,-3.1997,-3.1947,-3.1969,-3.1923,-3.1942,-3.1916,-3.1959,-3.1961,-3.1951,-3.1943,-3.1955,-3.1957,-3.1959,-3.1951,-3.1923,-3.1922,-3.1922,-3.1921,0,-3.2073,-3.2041,-3.208,-3.2056,-3.2051,-3.2085,-3.2065,-3.2088,-3.2067,-3.2096,-3.21,-3.2068,-3.2087,-3.2055,-3.207,-3.2053,-3.2113,-3.2094,-3.2116,-3.2111,-3.2165,-3.2161,-3.2343,-3.2365,-3.2187,-3.2189,-3.219,0,-3.2152,-3.2181,-3.2161,-3.2172,-3.2166,-3.2185,-3.2192,-3.2151,-3.2161,-3.2156,-3.2181,-3.2196,-3.2206,-3.2241,-3.2219,-3.2232,-3.2213,-3.2277,-3.2215,-3.2227,-3.2216,-3.2215,-3.2218,-3.2289,-3.2291,-3.2293,-3.2294,0,-3.2295,-3.2278,-3.229,-3.2298,-3.2308,-3.2312,-3.2312,-3.2325,-3.2282,-3.2296,-3.2315,-3.2324,-3.2341,-3.2358,-3.2366,-3.2359,-3.2321,-3.2315,-3.2327,-3.234,-3.2351,-3.2347,-3.2151,-3.231,-3.2309,-3.2307,-3.2307,-3.2306,-3.2404,-3.2429,-3.2419,-3.2435,-3.2432,-3.2434,-3.2455,-3.2438,-3.2453,-3.2463,-3.2439,-3.2465,-3.246,-3.2467,-3.2465,-3.2486,-3.2458,-3.2477,-3.2481,-3.2487,-3.2496,-3.2349,-3.2487,-3.2487,-3.2486,-3.2486,-3.2486,0,-3.2546,-3.2537,-3.2553,-3.2555,-3.2569,-3.2532,-3.2532,-3.2546,-3.2569,-3.2567,-3.2579,-3.2603,-3.2621,-3.2602,-3.2616,-3.2637,-3.2621,-3.2643,-3.2641,-3.264,-3.2519,-3.2507,-3.2656,-3.2656,-3.2656,-3.2656,-3.2656,-3.2656,-3.2621,-3.2661,-3.2645,-3.2685,-3.2676,-3.2701,-3.2704,-3.2708,-3.2706,-3.2735,-3.2749,-3.2737,-3.273,-3.2744,-3.2759,-3.2753,-3.2761,-3.279,-3.2778,-3.2665,-3.2648,-3.2632,-3.2621,-3.2792,-3.2792,-3.2898,-3.2899,-3.29]},{"header":{"parameterUnit":"m.s-1","parameterCategory":1,"la1":30.2991,"la2":30.254,"lo1":-89.0895,"lo2":-89.0444,"dy":0.0017,"dx":0.0017,"nx":28,"ny":28,"refTime":"2023-08-19T03:00:00:Z","depth":0,"parameterNumber":3,"parameterNumberName":"V-component_of_WINDS"},"data":[0,0,0,0,0,0,0,0,0,0,0,0,0,0,0,0,0,0,0,0,0,0,0,0,0,0,0,0,0,0,0,0,0,0,0,0,0,0,0,0,0,0,0,0,0,0,0,0,0,0,0,0,0,0,0,0,0,0,2.2323,2.2323,0,2.2361,2.2361,2.2362,2.2381,2.2381,2.2381,2.2381,2.2419,2.242,2.2421,0,0,0,0,0,0,0,0,0,0,0,0,0,2.2267,2.2268,2.2323,2.2323,2.2324,2.2361,2.2361,2.2362,2.2381,2.2381,2.2381,2.2381,2.2419,2.242,2.2421,0,0,0,0,0,0,0,0,0,0,0,0,0,2.2297,2.2268,2.2323,2.2338,2.2339,2.2361,2.2361,2.2362,2.2381,2.2381,2.2381,2.2381,2.2418,2.242,2.2421,2.243,0,0,2.2426,2.2427,0,0,0,0,0,0,0,0,2.2295,2.2299,2.2335,2.2337,2.2339,2.2366,2.2356,2.2385,2.2381,2.2365,2.2381,2.2381,2.2401,2.2404,2.2411,2.2432,2.2434,2.2426,2.2427,2.2428,2.2428,0,0,0,0,0,0,0,2.2293,2.2297,2.2338,2.2336,2.2338,2.2343,2.2347,2.2361,2.2383,2.2366,2.2368,2.2372,2.2402,2.241,2.2412,2.2434,2.2426,2.2427,2.2428,2.2429,2.2465,2.2465,0,0,0,0,0,0,2.2289,2.2295,2.2337,2.2339,2.2317,2.2344,2.2348,2.2357,2.2382,2.2386,2.2372,2.2373,2.2407,2.2411,2.2414,2.2426,2.2428,2.2429,2.243,2.2465,2.2465,2.2465,0,0,0,0,0,0,2.2287,2.2292,2.2335,2.2318,2.2324,2.2345,2.2354,2.2358,2.2365,2.2387,2.2391,2.2376,2.2407,2.2412,2.2426,2.2428,2.243,2.2431,2.2465,2.2465,2.2465,2.2451,0,0,0,0,0,0,2.2286,2.2291,2.2295,2.2318,2.2324,2.2347,2.2354,2.2359,2.2368,2.2369,2.2391,2.2395,2.2408,2.2424,2.2428,2.243,2.2432,2.2465,2.2465,2.2465,2.2452,2.2451,2.245,0,0,0,0,0,2.2284,2.2289,2.2295,2.23,2.2329,2.2347,2.2351,2.2365,2.2368,2.2372,2.2386,2.2394,2.2427,2.2425,2.243,2.2433,2.2465,2.2465,2.2465,2.2452,2.2451,2.245,0,0,0,0,0,0,2.2266,2.2293,2.2299,2.2313,2.2327,2.235,2.2355,2.2364,2.2378,2.2379,2.2396,2.2401,2.2414,2.2425,2.2422,2.2443,2.2447,2.2448,2.2435,2.2435,2.2434,2.2431,2.2433,0,0,0,0,0,2.2264,2.2276,2.2298,2.2308,2.2315,2.2334,2.2342,2.2352,2.2368,2.2375,2.239,2.2405,2.2419,2.2427,2.2441,2.2454,2.2459,2.2458,2.2457,2.2456,2.2457,2.2465,2.2465,2.2466,2.2466,2.2466,0,0,2.2259,2.2275,2.2282,2.2305,2.2318,2.233,2.2339,2.2351,2.2361,2.2376,2.2391,2.2403,2.2421,2.2435,2.2441,2.2444,2.2458,2.2457,2.2456,2.2457,2.2465,2.2465,2.2465,2.2466,2.2466,2.2466,0,0,2.2257,2.227,2.228,2.2293,2.2312,2.2324,2.2327,2.2348,2.2357,2.2372,2.2384,2.2396,2.2419,2.2432,2.2441,2.2445,2.2453,2.2449,2.2445,2.2452,2.2452,2.2452,2.2454,2.2454,2.2449,2.2449,2.2449,0,2.2249,2.2268,2.2284,2.2296,2.2306,2.2321,2.2331,2.2342,2.2365,2.2372,2.2374,2.2405,2.2418,2.2435,2.2436,2.2443,2.2446,2.2446,2.2451,2.2451,2.2451,2.2453,2.2453,2.2449,2.2449,2.2449,2.2449,0,2.2256,2.227,2.2275,2.2297,2.2308,2.2319,2.2336,2.2345,2.2355,2.2367,2.2383,2.24,2.2417,2.2422,2.2431,2.2441,2.2442,2.2447,2.2452,2.245,2.2452,2.2453,2.2448,2.2448,2.2448,2.2448,0,0,2.2243,2.2275,2.2277,2.2287,2.231,2.232,2.2332,2.235,2.2357,2.2373,2.2383,2.2403,2.2409,2.2419,2.243,2.2437,2.2439,2.2442,2.2443,2.2441,2.2451,2.2446,2.2447,2.2445,2.2445,2.2445,2.2449,0,2.2244,2.2266,2.2282,2.2298,2.231,2.2325,2.2336,2.2351,2.2363,2.2375,2.2389,2.2403,2.2409,2.2416,2.2423,2.2437,2.2441,2.2437,2.2455,2.2455,2.245,2.2448,2.2443,2.2446,2.245,2.245,2.245,0,2.2248,2.2263,2.2281,2.2303,2.2309,2.2318,2.2336,2.2347,2.2365,2.2374,2.2386,2.2397,2.2411,2.2414,2.2433,2.243,2.2439,2.2447,2.2447,2.2449,2.2453,2.245,2.2447,2.2448,2.2452,2.2452,2.2452,0,2.2237,2.2262,2.2276,2.2284,2.231,2.2316,2.2327,2.2345,2.2355,2.2371,2.2378,2.2395,2.2404,2.2417,2.2433,2.2434,2.245,2.2455,2.2458,2.2457,2.246,2.246,2.2459,2.2466,2.2466,2.2466,2.2466,0,2.2236,2.2246,2.2271,2.2279,2.2291,2.2309,2.232,2.2333,2.2349,2.236,2.2374,2.2385,2.2405,2.2418,2.2431,2.2445,2.2449,2.2456,2.2459,2.2455,2.2454,2.246,2.246,2.2466,2.2466,2.2466,2.2466,0,2.2225,2.2242,2.2258,2.2282,2.2288,2.2296,2.2316,2.2325,2.2339,2.2353,2.2357,2.2378,2.2394,2.2411,2.2433,2.2442,2.2455,2.246,2.2449,2.2451,2.2453,2.2452,2.2456,2.2457,2.2463,2.2463,2.2463,0,2.2223,2.2232,2.2256,2.2265,2.2276,2.229,2.23,2.2318,2.2328,2.235,2.2356,2.2374,2.2388,2.2413,2.243,2.2447,2.2452,2.2453,2.2455,2.245,2.2452,2.2452,2.2453,2.2451,2.2451,2.2451,2.2451,0,2.2218,2.2227,2.2241,2.2259,2.2271,2.2285,2.2301,2.2307,2.2328,2.2339,2.2356,2.2367,2.239,2.2407,2.2426,2.2438,2.2448,2.245,2.2452,2.2447,2.2441,2.2444,2.2447,2.245,2.245,2.245,2.245,2.245,2.2212,2.222,2.2239,2.2255,2.2268,2.2283,2.2292,2.2307,2.2321,2.2341,2.2351,2.2368,2.2387,2.2413,2.2425,2.2439,2.2442,2.2444,2.2444,2.2445,2.2444,2.2439,2.2442,2.2442,2.2442,2.2442,2.2443,0,2.2208,2.2221,2.2235,2.2256,2.2269,2.2278,2.2295,2.2305,2.232,2.2336,2.2351,2.2371,2.2387,2.2406,2.2424,2.2432,2.2437,2.2436,2.2435,2.2438,2.244,2.2437,2.2431,2.2431,2.2431,2.2431,2.2431,2.2431,2.2207,2.2221,2.2232,2.2253,2.2267,2.2283,2.2293,2.2306,2.2319,2.2341,2.2355,2.2367,2.2385,2.2404,2.242,2.2426,2.2432,2.2429,2.2436,2.2437,2.2438,2.2439,2.2436,2.243,2.243,2.2433,2.2433,2.2433]}]]